Tracking 29892 objects as of 21-Nov-2024
HD Live streaming from Space Station
objects crossing your sky now

THORAD AGENA D DEB

Track THORAD AGENA D DEB now!
10-day predictions


NORAD ID: 4739
Int'l Code: 1970-025CN
Perigee: 914.7 km
Apogee: 917.5 km
Inclination: 100.0 °
Period: 103.2 minutes
Semi major axis: 7287 km
RCS: 0.059 m2 (small)
Launch date: April 8, 1970
Source: United States (US)
Launch site: AIR FORCE WESTERN TEST RANGE (AFWTR)

Note: This is SATELLITE DEBRIS
Your satellite tracking list
Your tracking list is empty




NASA's NSSDC Master Catalog

Two Line Element Set (TLE):
1 04739U 70025CN  24325.42691999  .00003308  00000-0  24673-2 0  9990
2 04739  99.9614 136.3763 0001877 168.3846 210.9649 13.95628355734047
Source of the keplerian elements: AFSPC